GFSSE_con_sbcape_231.txt.gz
CAPE
119 267 2550 2890 2142 2243 1638 1624 1716 1696 1698 1724 1733 1883 2345 2327 2096 2044 2265 2376 2378 2569 2694 2728 2932 2941 2954 2948 2915 2560 2132 2994 2909 2507 2441 2474 2319 2254 2470 3037 3500 2601 3066
238 279 2193 3060 2846 2560 2365 2089 1970 1792 1826 1820 1822 1863 2143 2303 2159 2006 1728 1878 2174 2183 2648 2845 2527 2565 2602 2965 2695 3264 2389 2709 3526 3444 3025 2466 2725 2138 3095 2798 2363 2014 2107
401 619 798 2701 3007 2486 2853 2486 2126 1758 1795 1944 1913 1932 2111 2153 1961 1899 1838 1783 1796 2033 2086 2629 2682 2389 2377 2484 2300 2542 2401 2204 2741 3042 3481 1170 1972 2747 3256 3274 3231 2890 2891
589 680 878 2532 2818 2977 2986 3006 2711 2117 1997 2133 2142 2036 2071 2038 1847 1788 1731 1740 1767 1796 2057 2039 2573 2850 2294 2175 2141 2224 2258 2232 2093 2361 2513 706 891 2119 2611 2780 2756 2755 2521
513 874 1913 2731 3092 3258 3016 2944 2668 2554 2463 2250 2187 2061 1897 1817 1729 1610 1595 1691 1864 1829 1804 2022 2348 2455 2743 2332 2098 2162 2158 2129 2001 2129 731 1026 737 1742 1854 1900 1914 2304 2514
419 898 2037 2766 2313 2719 2615 2477 2220 1966 1819 1937 1930 1859 1755 1652 1541 1694 1990 2105 2125 2167 2097 2201 2119 2467 2673 2783 2259 2298 2477 2526 2155 1138 792 757 844 2124 2471 2870 3147 3016 2619
853 1172 1351 2676 2622 2481 2479 2310 2022 1689 1551 1646 1763 1787 1878 1950 1942 1789 1596 1733 1753 1657 1845 1920 1916 2045 2177 2530 2515 2556 2926 2463 2647 1042 899 1170 1817 2898 3218 2842 2982 3124 2627
971 988 1372 2228 2411 1967 2058 1848 1866 1726 1533 1598 1681 1672 1535 1575 1721 1390 1322 1577 1636 1913 1593 1890 1615 1721 1886 2125 2279 2420 1461 1400 1601 1235 1138 1383 3023 3335 3045 3211 2822 2876 3037
745 1086 849 1175 1699 1860 2045 1856 1720 1664 1400 1355 1377 1359 1431 1457 1515 1440 1279 1534 1705 1512 1409 1591 1600 1469 1552 1764 1861 1993 1859 1822 1755 1915 1013 2468 3563 3191 3144 3131 2927 2963 2881
927 841 903 724 1112 1567 1529 1584 1178 1239 1306 1130 1137 1241 1409 1632 1592 1575 1425 1564 1365 1338 1027 1286 1487 1457 1505 1526 1606 1790 1956 2188 1877 1933 1333 2521 2859 2846 2550 2223 3052 2988 2705
750 481 540 635 674 1494 1530 1454 1234 662 262 259 173 815 1429 807 968 1266 1485 1125 1384 1496 1419 1167 1649 1315 1577 1573 1440 1647 1502 1371 1158 1645 1293 2645 2933 2537 2611 2549 2391 2919 2847
596 660 880 861 842 1196 894 481 430 8 14 3 42 0 576 813 488 584 995 1321 1113 947 1185 1380 1488 1339 1269 1135 1302 1475 1060 1479 1387 1229 1296 2079 2057 1497 1824 2131 2304 2688 2950
562 588 670 737 1294 1227 273 11 44 27 0 0 0 0 88 1233 838 892 1361 1339 962 935 1599 1100 1338 1079 732 962 1249 815 932 1382 992 1447 1504 2511 1892 1660 1682 1591 2150 2320 2814
631 890 568 800 972 1434 737 0 3 0 0 0 0 4 306 1071 1248 1512 2139 1509 870 1786 1272 1536 963 1274 581 608 549 514 821 1171 1286 1495 1879 2277 1516 1524 1429 1591 2191 2130 2253
822 938 788 950 1628 1799 1056 114 0 13 0 0 45 160 377 1321 935 1438 1979 1174 2176 1573 1032 1443 1562 1053 1490 743 430 539 794 1471 1256 1290 2167 2901 2717 2457 2323 2424 2744 2474 2188
1058 1239 1308 1321 1401 1388 1775 1522 573 1004 891 983 1528 1458 1296 1291 1650 1080 1523 1453 1472 1500 1799 1732 1270 1500 402 426 593 493 627 640 817 1012 1008 2268 3102 2993 2571 2564 2888 3012 2467
1186 1357 1693 1786 1967 1906 1880 1855 1150 680 1434 2102 607 324 1111 1520 1568 1748 1517 941 1183 2062 1195 1654 998 756 1048 1213 910 697 666 557 853 1174 1311 971 2159 2881 2845 2331 2747 3551 3295
1201 1443 1570 1315 1711 1793 2143 1448 494 986 784 1511 1719 1319 700 724 1412 2042 1567 972 917 952 1827 773 869 674 1064 1267 1089 595 949 884 1155 1222 1566 1610 1790 1828 2435 2847 3312 3749 2989
1552 1598 1715 1619 1440 1949 1924 1932 1410 1622 1369 1074 1780 1296 1620 801 712 1611 1046 2120 1754 1583 1761 1409 1033 1940 907 851 1228 807 1019 1339 1604 1165 1421 1858 1583 1767 2228 3116 3368 3706 2639
1623 1738 1913 1940 1905 1984 1916 1863 1707 1161 1776 2060 1967 1514 1694 834 834 2259 1859 2079 1620 1693 1775 1677 2446 1318 1216 1164 1225 1042 1681 1616 1904 1358 1134 1194 1458 1563 1268 2654 2626 2433 2860
1710 1910 2207 2143 2394 2297 2001 2814 1844 2042 2256 2007 1763 1895 1424 1382 1086 1207 1296 1564 2461 1717 2098 1753 1720 1560 1362 1387 1201 1053 943 1326 1233 1288 1468 1469 1780 1846 1669 1264 1913 1642 2096
1953 2086 2380 2546 2694 2733 2295 2023 2488 2486 2039 1858 1612 1842 1799 1704 1635 2059 2210 1841 1579 2470 2112 2204 2194 2655 851 1441 1706 1932 1274 331 1321 953 1017 1235 1411 1575 1764 1521 1604 1807 1945
1977 2239 2476 2841 2953 3004 2576 2255 2298 2445 2417 2865 2182 2013 2160 1876 1815 2061 2093 2195 1609 1913 1645 2595 1991 1807 1601 930 1041 1930 836 558 398 603 579 500 1204 1374 1490 1594 1689 1963 2200
2019 2374 2547 3051 3182 3149 3067 2993 3100 3234 2380 3357 1985 1810 1887 2550 2273 2115 1948 1669 2019 1565 2725 2231 1690 1917 2309 1620 519 1291 1570 1481 686 544 1172 585 983 1207 1211 1393 1627 1855 1958
2158 2355 2536 3129 3543 3380 3307 3402 2746 2850 2768 1998 1932 3650 2760 2263 2504 2005 2212 2466 2537 1828 2269 2293 1938 3001 1636 551 299 473 1594 1003 1387 935 1435 693 907 811 828 1167 1171 1281 1511
1975 2288 2645 3316 3761 3775 3533 3502 3475 3268 2635 2624 2585 1953 1887 1899 1914 2492 2139 2468 3155 2852 2516 2053 2515 2216 2178 501 389 1200 1366 765 601 1302 1154 695 958 1092 1035 996 1140 1482 1502

GFSSE_con_sbcape_234.txt.gz
CAPE
84 504 2546 2072 2380 2325 2216 2295 2341 2272 2268 2381 2772 2882 2910 2764 2945 3127 3122 3080 3318 3123 3269 3226 3178 2338 2526 2485 2012 2457 2672 2797 3319 2660 2289 2089 2113 3005 3296 3447 3315 2194 2690
28 333 2805 2378 2437 2403 2406 2385 2493 2379 2261 2283 2481 2689 2721 2538 2494 2545 2692 2622 2843 2795 2753 2393 2446 2594 3002 2899 2523 2204 3068 2905 3365 2566 2329 2109 2963 2724 3059 3245 2993 2582 2952
0 589 1712 2609 2533 2630 2526 2443 2436 2247 2122 2074 2030 2059 2123 1945 1909 1764 1863 1911 1847 2069 2720 2281 2238 2282 2515 2385 2836 2338 2532 3633 3887 2972 3020 1513 2813 2771 3330 2038 2103 2054 1989
39 134 1015 2807 2513 2741 2709 2680 2520 1917 1952 2006 1930 1977 2034 1807 1761 1683 1667 1691 1622 1764 1685 2571 2393 2141 1964 2175 2345 2238 2199 2225 2786 2972 2481 1077 1964 3003 3156 3148 3061 2938 2784
234 312 1212 2989 2737 2735 2921 2814 2951 2520 2267 2167 2099 1940 1810 1748 1654 1566 1530 1512 1483 1485 1626 1754 2307 2326 2035 1868 1924 1985 1969 1922 1931 2097 2210 648 853 2039 2027 1924 2019 2027 2685
712 1339 2230 2963 3165 2875 2844 3049 2692 2718 2137 2126 1989 1878 1732 1539 1385 1453 1619 1775 1997 1779 1554 1734 2064 2345 2530 2024 1894 1984 2155 2071 2116 2457 1371 1752 646 1900 2033 2911 3140 2837 2021
1387 1354 1721 3102 2986 2942 2911 2707 2621 2326 1877 1826 1760 1628 1549 1686 1891 1790 1280 1651 1621 1743 1694 1607 1719 1954 2076 2014 2087 2303 2483 2288 2369 2493 1132 1322 1969 3197 3121 3169 2990 2506 2047
960 885 1538 2411 2815 2759 2620 2468 2378 1724 1630 1678 1564 1677 1597 1548 1616 1136 1339 1214 1581 1700 1537 1568 1713 1644 1988 1996 2407 2631 2658 1945 1990 2125 940 1532 3000 3731 2871 2954 2723 2980 2515
729 1151 1172 1266 1869 2196 2248 1889 1709 1517 1414 1519 1442 1408 1305 1314 1289 1347 1094 1355 1401 1401 1429 1629 1533 1644 1700 2001 2036 2357 2254 2288 1737 1856 1835 1930 3697 3623 3167 2926 2601 2856 2876
1068 853 1053 982 1342 1493 1661 1365 1388 1295 1572 1557 1499 1526 1679 1319 1414 1279 1135 1543 1656 1471 1233 1474 1547 1388 1456 1614 1839 2071 1959 2056 1751 1826 1911 2080 3513 3607 2988 2944 2991 2939 2739
961 583 1010 673 1436 2053 1488 1232 1690 1230 727 288 225 111 822 959 66 4 313 1145 1420 1559 1415 1061 1510 1425 1495 1489 1693 1954 1647 1635 1409 1194 1243 2178 2811 2921 2465 2183 2692 2945 2657
563 587 813 676 1017 1231 1251 1408 1059 82 4 15 35 36 18 168 52 11 132 1047 1367 1313 1201 1375 1741 1291 1185 973 1138 1530 1386 1260 1035 1276 739 2269 2830 2715 2375 2357 2712 2987 2801
472 570 527 1089 1763 1183 1102 190 154 39 0 1 0 0 5 225 4 23 8 1082 1098 934 864 1120 1448 1290 860 702 25 788 531 488 840 977 1130 2635 2713 2579 2109 2035 2526 2837 2843
634 796 800 1162 1404 1074 1227 115 37 3 0 0 0 4 125 439 1068 229 435 586 448 1406 717 1829 834 723 201 560 436 645 453 782 777 1050 1061 2524 2574 2437 1891 1839 1905 2399 2677
563 671 493 1263 1458 1690 1499 9 1 10 0 0 0 8 89 482 1255 524 1441 1225 1181 422 815 1483 1052 1173 572 771 676 494 865 343 506 976 1090 2796 2621 2559 2219 1699 2051 2312 2239
914 620 645 1218 2018 1839 813 326 23 216 574 73 103 961 1018 1008 1308 1910 692 1253 1429 198 829 1711 1484 1607 1528 913 928 959 1025 1236 916 873 1478 2022 2830 2702 2677 2808 2910 2997 2582
1024 1052 1318 1029 1418 2218 1744 1631 980 440 491 1246 751 1245 653 1560 835 1529 1604 388 1508 1815 1561 1206 1488 1672 518 1252 1469 718 956 887 872 1597 1826 1815 2525 3273 3263 3378 3432 3559 3465
1137 1364 1570 1189 1588 1855 1943 1761 1215 1026 1453 1286 1895 1003 1052 1253 1456 2365 1405 830 1032 1583 1645 1413 918 1506 1058 1329 1557 1675 1335 1242 1119 2005 1660 1324 1608 1593 2906 3118 3138 3158 3568
1665 1521 1523 1506 1553 1750 2496 1855 994 511 1012 1333 1387 1242 1967 1708 1539 2600 520 693 1307 2074 1920 1335 1301 1861 1639 811 712 1125 949 1344 957 916 1329 1677 1083 1334 1616 2611 2704 3207 3204
1645 2012 2363 1860 1639 1536 2214 2290 1385 1217 1176 1390 1581 1529 1373 1362 1650 2210 539 639 1837 1291 1596 1380 1684 1986 1863 2173 1567 934 827 1294 708 1742 1525 1531 1222 1825 2266 2178 2457 2831 3413
1792 2134 2484 2865 3204 2813 2530 2434 1846 1911 1749 1865 1629 1446 1338 2016 2244 2433 2044 1243 1624 2431 2309 1810 1912 1935 1544 1709 1673 990 249 0 50 310 1501 1941 1581 1145 1506 2257 1933 2146 2593
2075 2423 3006 3198 3558 3244 2793 2474 2461 2235 869 818 1539 1655 2286 2558 2192 1939 2290 1467 2016 2246 1921 1972 2057 2878 1199 390 562 1328 62 0 12 109 509 1539 1807 1390 1693 2136 2511 2519 1864
2223 2589 3330 3714 3925 3462 3548 3056 2840 2741 718 1974 1178 1962 2253 1996 1898 1787 2238 2267 2176 2404 2243 1760 2048 2067 1369 440 100 1212 568 139 0 0 40 1072 1502 1659 1609 1672 1934 2288 2612
2452 2555 3440 3791 4198 3726 3962 3425 3262 2557 1885 2637 1906 1801 2517 1085 1270 2290 1200 1154 2449 2339 2462 2271 2005 1900 2117 1107 1097 739 1308 551 404 682 500 228 981 1435 1306 1893 2035 2258 2634
2132 2566 3270 3986 4280 4491 4015 4115 3415 3262 2527 2675 2172 2318 2370 2500 2387 2187 1854 1518 2560 2463 2238 2264 1918 1749 1520 1288 952 720 138 12 435 580 236 0 0 1577 1604 1631 1457 1640 1795
2240 2549 2900 4308 4723 4516 4602 4221 4041 2855 2721 2645 1203 1629 2556 2458 2352 2574 2008 2094 2047 2294 2839 2635 2949 2793 2111 996 345 84 0 158 391 15 81 2 1 39 999 1409 1317 1427 1644

GFSSE_con_sbcape_237.txt.gz
CAPE
783 1339 2389 2334 2345 2140 1977 1807 1926 2061 2678 3082 2963 2656 2670 2741 2834 3073 3161 2555 2916 3098 2938 2931 2867 2289 1770 2095 2602 2875 3030 3141 3269 2740 2732 2526 2619 2975 3419 2137 1855 1923 2480
743 1381 2358 2487 2455 2459 2422 2234 2140 2187 2218 2846 2913 2775 2263 2082 2101 2335 2624 2749 2634 2502 2358 2315 2514 2735 2672 1834 2694 1870 2378 3062 3115 2189 2480 2483 2405 2639 3484 3039 2841 2721 2677
625 1484 2075 2490 2515 2362 2621 2481 2107 1808 1760 2298 2487 2326 1991 1976 1775 1806 1654 1650 2103 2589 2158 2080 2307 2495 2775 2599 1984 3115 3077 2745 3310 2619 2640 2161 1554 2167 2087 2063 2155 2119 1997
894 1163 1790 2366 2567 2440 2518 2539 2482 1775 1796 1997 2122 1907 1876 1829 1706 1650 1534 1492 1636 1597 2456 2259 1946 1960 2106 2388 2204 1978 2798 2828 2982 3313 1734 2197 1890 2807 2714 2953 3017 3043 2921
501 1141 1784 2717 2753 2498 2302 2300 2553 2283 1908 1922 1887 1862 1763 1692 1576 1407 1309 1250 1318 1394 1500 1879 2329 1924 1837 1889 2078 1959 1973 2181 2633 2470 1696 1455 1975 2655 2630 2359 2076 1841 1755
303 1507 2562 2825 2316 2680 2466 2574 2231 2254 2088 2056 1866 1789 1646 1402 1289 1390 1556 1626 1893 1580 1381 1457 1956 2417 2018 1716 1681 1727 1790 1841 1947 1872 1771 1253 1110 1746 2132 2197 2445 2164 2924
778 1624 2201 2733 3046 3116 2968 2696 2547 2146 2061 2041 1819 1559 1415 1783 1764 1515 1313 1553 1519 1632 1470 1374 1569 1928 2004 2122 1851 2048 2318 2302 2093 1744 548 585 1288 2897 3192 3151 2438 1843 1664
1124 1478 1946 2748 2930 2895 2305 2158 2359 1933 1818 1703 1705 1679 1604 1527 1537 1174 1289 1146 1429 1433 1437 1295 1617 1685 1725 1885 2173 2303 2634 2636 1690 1420 883 1188 2408 3609 3265 2933 2528 2168 1730
1306 1596 1696 1777 1679 2249 2696 2316 2206 1715 1643 1497 1385 1303 1324 1218 1143 1460 1156 1044 1289 1392 1463 1455 1518 1537 1765 1921 2092 2495 2629 2220 1633 1169 1233 1711 2809 3445 3047 2594 2892 2733 2134
946 1065 1186 1279 1387 1611 1670 1870 1605 1428 1380 1484 1728 1690 1451 886 861 606 240 824 1120 1529 1539 1403 1536 1467 1610 1992 2036 2104 2350 2206 1549 1070 1230 1086 2854 3138 3296 2732 2632 2883 2715
876 751 910 1131 1112 1177 1003 1140 1537 1748 1475 968 272 164 191 0 0 0 13 221 927 1269 1335 1036 1321 1458 1538 1573 1882 1957 2102 1385 707 1079 930 822 2166 2983 3216 2879 2950 2989 2780
512 530 564 890 1186 1093 952 1199 769 564 4 0 0 0 0 0 2 0 0 108 994 1173 1265 1531 1157 1535 1333 943 1009 1504 1368 630 412 831 745 1380 1024 2667 2632 2486 2743 3058 2822
440 456 485 653 927 891 967 572 90 5 0 0 0 0 0 2 0 0 0 0 108 845 551 973 1204 1366 835 439 379 2 520 668 665 978 1016 1993 2007 2977 2525 2658 2767 2916 2880
188 275 540 900 878 763 440 17 13 0 0 0 0 0 0 0 0 0 0 0 14 222 499 364 574 767 548 336 0 0 379 873 868 712 549 1714 2601 3125 2930 2325 2651 2813 2947
219 273 631 840 768 717 527 9 6 0 0 0 0 0 0 2 12 144 0 0 3 341 371 394 612 308 290 213 71 111 439 327 858 392 615 780 2204 3061 3162 2607 2296 2527 2484
291 278 637 920 860 775 679 0 0 0 1 0 0 0 0 12 195 134 38 44 123 272 198 252 517 387 480 256 292 276 461 628 536 643 547 651 2259 2992 3152 3239 2895 2891 2492
282 300 655 978 1279 825 545 2 0 0 338 195 42 188 586 272 605 485 209 291 361 336 130 403 705 581 688 227 536 279 304 336 123 723 801 770 1778 2941 3055 3192 2969 3186 3221
241 195 635 770 997 1098 696 722 432 265 93 273 291 340 459 390 446 470 553 636 547 552 762 596 700 625 588 535 475 834 810 345 162 287 579 1156 1051 1292 2697 2985 2823 3195 3254
529 550 477 631 812 1162 1162 1124 819 384 457 639 547 533 499 522 507 762 732 502 567 599 1052 843 884 785 859 573 374 382 316 533 385 626 725 496 995 1282 1646 2506 3099 3012 2819
776 654 687 856 1074 1260 1418 1201 950 202 140 530 561 676 569 790 1003 910 421 10 61 648 615 714 640 836 785 1011 1361 247 107 8 43 10 131 768 765 1146 1159 1462 2259 2189 3043
949 947 666 1031 1160 1396 1588 1296 1172 853 866 833 859 1086 888 909 867 859 368 211 366 797 709 865 756 544 477 763 448 513 95 0 0 0 0 208 873 688 1110 1452 1699 1660 2345
812 1330 1125 958 1136 1208 1122 1111 951 965 278 0 0 228 1016 810 864 1004 978 649 579 708 877 835 749 868 509 366 405 391 27 0 0 0 0 0 50 754 1695 1679 1399 1411 1654
842 1394 1524 1954 1495 1724 1579 1595 1455 642 931 615 364 402 1014 1119 1184 995 915 1038 856 841 958 970 963 910 350 176 130 281 113 9 0 0 67 192 40 260 487 1716 1388 1448 1615
1484 1528 1707 2346 2166 1938 2257 1799 1256 969 781 752 776 533 572 1057 645 689 1223 782 759 1155 1017 1024 1055 986 559 496 182 390 416 0 0 26 260 95 0 86 712 737 1759 1325 1354
1560 2026 2138 2667 2646 2394 2444 2259 1690 1328 1001 1068 1121 87 901 1295 553 516 272 354 481 890 1364 1195 1006 1178 857 266 375 439 120 16 51 123 81 0 0 0 7 376 801 946 1554
1714 1998 2444 2686 2978 2804 2594 2506 2252 1667 1652 1144 16 3 185 1195 344 153 82 55 437 690 805 1278 1278 1123 974 357 265 102 0 5 0 0 5 0 0 0 0 201 336 875 1158

GFSSE_con_sbcape_240.txt.gz
CAPE
639 1355 2205 1816 1430 1698 1590 2018 2582 2751 2753 2800 3074 2762 2786 2694 2837 2549 2890 2615 2395 2560 2630 2032 1750 2080 2714 2778 2883 2819 2875 3220 3171 2442 2432 2503 2541 2539 2436 2588 2643 2495 2466
706 1399 2272 2103 1760 1632 1851 1986 2386 2891 2751 2560 2595 2262 2008 2085 2101 2721 2830 2287 2251 2530 2380 2464 2337 1518 2390 2473 2917 2948 2768 2927 2992 2662 2609 2689 2856 2433 1893 1762 1865 1979 2274
890 1338 1773 2205 2031 1679 1902 2005 1949 2371 2278 2284 2186 2017 1784 1654 1683 1620 1852 2467 2243 2057 2129 2715 2573 2897 1781 2689 2323 2382 2539 2763 3394 2669 2356 1712 2544 3113 2883 2887 3030 2888 2517
655 1277 1546 2193 2318 1963 1750 1871 1842 1718 1958 2006 1909 1893 1860 1770 1704 1508 1520 1559 1686 2649 2220 1927 2074 2395 2634 2019 2790 2949 2589 2931 2912 2480 1969 1796 1694 1844 1801 1800 1784 1685 1615
794 1346 1554 2496 2548 1949 1703 1708 1792 1575 1708 1889 1802 1784 1735 1611 1448 1256 1173 1252 1379 1535 1962 2439 1859 1855 2094 2161 1958 2229 2317 2453 2494 2127 1069 1693 2103 2766 3143 3166 3075 3001 2839
1064 1208 2133 2360 1904 1931 1774 1772 1730 1669 1625 1787 1771 1670 1553 1271 1282 1481 1649 1782 1799 1628 1512 1717 2444 1929 1736 1645 1815 1880 2069 2203 1816 1608 1168 1962 2022 2271 2152 2024 1880 1758 1836
1128 1370 1665 2442 2572 2207 1933 1756 2000 1966 1950 1821 1756 1473 1405 1857 1871 1321 1652 1591 1616 1678 1501 1469 1679 2092 2224 1965 1604 1705 1734 1858 1630 1442 1350 1281 1112 2909 2517 2566 2256 2547 2999
1236 1363 1593 2215 2313 2689 2177 2370 2065 1936 1931 1765 1596 1810 1791 1745 1336 1190 1197 1174 1327 1373 1529 1318 1501 1705 1685 1963 2251 2079 2118 1752 1474 1107 552 691 1730 3227 3499 3053 2162 1760 1664
1444 1462 1360 1485 1607 2306 2726 2132 2042 1869 1788 1721 1592 1479 1424 1264 1360 1443 1120 998 1280 1479 1426 1492 1511 1594 1681 1755 1981 2462 2535 1735 1117 763 776 1199 2407 3478 3302 2882 2621 2146 1757
1270 1591 1456 1230 1376 1978 1832 2002 1944 1829 1648 1519 1511 1719 1696 1603 1353 614 222 789 1031 1208 1440 1312 1525 1502 1619 1793 2043 2091 2193 1666 1307 941 1598 1562 2658 3228 3163 2720 2935 2830 2265
1235 1228 1233 1079 1266 1320 1352 1542 2002 1690 1562 1755 1071 1190 239 0 0 0 40 172 974 1070 1263 1217 1391 1444 1554 1638 1753 2031 1881 882 1103 930 874 1491 1106 2430 2521 2970 2670 3073 3011
766 753 940 1020 1107 1069 993 1015 1067 1313 363 60 1 0 11 0 0 10 0 86 910 1088 1170 1148 1244 1274 1442 1200 1085 1560 990 370 393 950 490 662 827 2192 2063 3202 2965 3243 3056
613 706 735 785 970 786 917 816 303 7 0 0 0 0 0 0 0 0 0 0 3 714 631 741 1127 1126 1194 706 615 356 652 546 535 753 1068 1329 1791 1840 2422 3561 3467 3095 3248
467 609 443 767 910 716 863 647 113 0 0 0 0 0 0 0 0 14 0 0 0 38 182 302 380 706 792 627 507 271 33 458 328 377 746 1045 1761 2099 2397 3497 3221 3294 2880
266 415 384 745 783 695 422 74 20 0 0 0 0 0 0 2 5 19 2 0 0 4 193 215 283 357 397 386 71 0 22 205 422 505 429 932 1596 2629 2999 3393 3386 3013 3010
237 337 543 741 620 601 176 0 0 0 0 0 0 0 0 0 12 49 36 7 16 12 121 80 192 286 292 309 161 151 144 378 178 491 390 432 1117 2648 2609 3310 3209 2698 2609
132 308 499 650 531 587 162 0 0 0 0 0 0 0 0 0 3 143 207 131 122 115 139 60 198 362 313 293 293 271 253 360 437 439 335 670 958 2035 2658 2907 2898 2980 2710
101 225 520 848 700 446 253 0 0 0 0 57 69 25 89 153 176 334 230 186 175 201 268 138 322 337 229 233 195 297 361 286 319 260 295 502 717 1100 2440 3060 2897 2596 2878
117 209 709 936 875 577 432 147 41 99 17 29 115 98 72 213 188 234 301 421 448 389 324 319 602 483 518 397 428 347 356 276 263 404 91 226 448 1041 914 1817 2697 2738 2580
112 338 454 518 765 779 590 761 615 257 123 170 303 229 269 279 286 197 307 310 19 88 150 338 445 419 526 316 1112 84 39 58 50 9 63 270 580 714 937 937 1516 2270 2938
292 343 311 572 587 1098 973 897 882 566 50 32 404 404 392 353 286 446 343 109 0 23 210 289 327 208 132 475 273 330 280 10 0 0 0 0 1 453 878 967 1163 1507 1515
488 454 423 649 891 1276 1177 957 832 726 488 377 194 90 198 701 680 687 375 178 164 169 360 520 436 108 315 205 212 257 162 0 0 0 0 0 0 48 510 778 1066 1368 1277
697 646 543 670 919 1118 1145 732 593 416 244 320 294 63 100 736 897 514 545 372 419 302 391 585 411 386 483 138 115 152 75 53 0 0 118 132 7 0 193 449 1211 1131 1066
809 983 824 670 921 970 921 911 993 777 370 210 415 256 216 285 53 2 34 127 379 469 329 434 502 506 424 326 115 48 208 1 0 9 174 1 40 87 0 335 1268 1066 1048
789 1317 1090 1294 975 1066 1178 1187 1058 816 558 419 799 518 560 93 0 0 0 0 47 364 607 915 620 504 319 205 281 312 218 63 59 140 119 1 0 0 0 0 356 627 1312
1169 1453 1536 1863 1453 1327 1535 1781 1376 1063 1002 1010 11 0 43 155 0 0 0 0 0 508 318 232 780 765 479 143 151 150 19 29 67 60 4 0 0 0 0 5 196 319 563

GFSSE_con_sbcape_246.txt.gz
CAPE
551 445 1654 2111 1938 1720 2104 2709 3184 3053 3048 2943 2923 2829 2491 2354 2208 2165 2081 2318 2030 1897 1998 2324 2168 2073 2240 2436 2385 2521 2497 2883 2758 2658 2706 2610 2281 2225 2294 1959 2413 2031 2547
623 642 1737 2130 2008 2213 2471 2902 2865 3022 3072 3020 2792 2812 2665 2467 2369 2153 2171 2230 1793 1721 1583 2315 2370 2250 2318 2174 1842 1963 2248 2478 2441 2183 2368 2419 2193 2492 2701 2539 2445 2172 1889
759 821 1252 2170 2274 1984 2365 2656 2673 2592 2387 2656 2893 2994 2553 2438 2417 2573 2625 2496 1928 1746 1347 1803 2358 2386 2498 2286 1886 2470 2707 2730 2780 2748 2843 2200 1923 1943 1976 2179 2450 2574 2441
994 945 1264 2144 2211 2169 2334 2633 2653 2067 2080 2016 2098 2053 2294 2320 2403 2139 1818 1765 2295 2502 2457 1570 1783 1861 2127 2448 2025 2518 2787 2731 2804 2653 2212 2466 2459 2748 2740 2825 2611 2486 2457
944 969 1203 2241 2354 2271 2321 2691 2656 2171 2070 2038 1924 1785 1615 1556 1456 1561 2158 2471 1786 1677 1935 2377 1876 2190 2722 2471 2087 1978 2471 2311 2303 1893 1691 1604 1587 1837 1837 1808 1718 1682 1675
850 941 1845 1982 1869 1846 1842 1949 2022 1990 1931 1860 1827 1739 1617 1332 1106 1103 1153 1245 2052 2412 1577 1479 1824 1790 2135 2290 2243 2233 2366 2233 2221 1480 1758 2369 2208 2721 3133 3129 3112 2866 2869
803 928 1436 2310 2055 1868 1866 1974 1996 1929 1810 1758 1744 1513 1339 1451 1663 1776 2020 1765 1598 1422 2059 2367 1653 1459 1564 1839 2106 2161 2115 2255 1923 1618 1531 2237 2257 2947 2380 1876 1785 1882 1895
849 1017 1362 1875 1857 1782 1844 1893 1846 1851 1863 1748 1627 1426 1893 1884 1633 1839 1689 1644 1659 1767 1681 1755 2265 2352 2079 1448 1413 1660 1900 1999 2208 1349 1588 1778 1788 2435 2185 2375 2232 2759 3113
1046 1117 1224 1346 1435 1692 1893 1890 1945 2004 1955 1787 1578 1941 1955 1612 1361 1376 1282 1440 1493 1588 1577 1439 1668 1906 1752 2088 2039 1644 1701 1765 1284 1098 869 1355 1942 2554 2917 2957 2310 1838 2001
1011 1089 1060 1136 1457 1415 1597 2137 2013 2039 2054 1955 2151 1861 1533 1483 1937 1427 1111 1243 1515 1587 1631 1535 1515 1669 1650 1833 1846 2186 2039 1515 1122 911 1166 1174 2127 2548 2993 2524 2800 2225 1841
990 1017 981 1076 973 1338 1773 1804 2457 2224 2136 2149 1768 1691 1367 266 236 165 157 394 1352 1343 1677 1599 1445 1426 1478 1634 1751 1982 1976 1476 1216 840 895 1407 1773 2303 2667 2948 2987 2648 2485
822 1029 948 1007 1063 1505 1637 1582 1827 1665 1419 684 647 511 48 0 0 3 67 194 725 1256 1526 1579 1417 1333 1283 1367 1167 1551 1469 1241 783 878 1197 1425 2053 1811 2262 2936 2987 2909 2896
659 1006 994 968 1240 1450 1401 1174 1201 613 452 138 72 56 17 0 0 0 12 1 10 771 633 803 847 1141 996 967 1018 887 846 917 504 625 1029 1418 1996 1880 1985 2967 3001 3237 2821
654 867 942 1031 1146 1169 1107 1012 723 250 18 1 0 0 0 0 0 0 31 2 0 116 218 287 298 405 743 983 770 729 538 664 824 557 803 1408 1743 1849 1729 2468 2472 3501 3123
576 789 928 891 971 966 957 945 473 67 4 0 0 0 0 0 0 0 19 0 0 19 58 167 217 315 387 543 721 619 625 416 412 603 592 979 1653 1933 2025 1665 2510 3048 3159
495 657 846 820 897 714 822 737 409 19 0 0 0 0 0 0 0 0 0 8 0 0 6 56 73 183 378 338 427 451 316 217 178 315 566 647 1056 1426 1984 2106 2349 2757 3275
308 423 602 698 856 650 661 521 154 4 0 0 0 0 0 0 0 0 34 66 48 57 39 57 60 76 263 359 421 537 423 338 320 225 317 493 401 808 1338 1837 3028 3033 3295
159 298 338 629 751 613 509 177 28 0 0 0 0 0 0 0 0 0 18 219 168 121 66 107 175 222 274 433 386 394 744 458 443 462 457 441 483 503 731 1547 2405 2747 2528
80 87 216 495 626 556 317 37 0 0 0 0 0 19 3 2 73 0 45 144 327 449 105 183 255 295 377 568 389 349 448 516 478 499 579 476 487 703 685 858 1974 2433 2396
12 57 169 411 455 392 208 13 0 0 6 2 0 15 106 95 104 161 68 113 437 383 185 172 224 325 408 674 678 1084 322 427 388 360 326 351 460 355 443 810 995 1398 2573
0 100 181 345 356 268 278 293 212 175 92 59 78 89 180 173 184 184 141 128 81 85 20 27 263 308 100 181 523 464 464 116 140 240 272 170 164 188 438 720 890 983 1156
39 75 234 364 403 358 325 333 455 331 302 259 163 119 136 193 271 245 225 252 196 131 58 77 261 234 67 226 297 148 192 119 0 6 10 10 21 0 0 76 284 942 1228
44 69 147 263 385 573 466 435 415 361 227 203 189 117 91 199 374 521 332 155 144 131 137 165 248 245 222 73 117 144 71 85 0 3 3 12 182 164 138 89 242 580 1091
160 100 160 147 320 576 593 602 626 604 562 198 225 172 144 52 21 162 220 290 189 80 120 214 404 361 81 51 62 67 51 68 149 59 130 108 138 54 105 251 171 657 935
234 188 201 164 423 555 747 750 698 645 434 250 217 245 104 220 255 79 0 43 288 469 260 286 456 305 289 390 216 61 27 35 12 36 73 87 70 5 36 65 104 276 834
273 335 272 262 399 532 754 727 728 745 616 516 562 510 413 307 307 27 0 0 39 81 255 385 515 517 448 271 203 172 245 170 54 76 94 144 111 98 84 85 95 43 120